Location: Newark
(43.0000°N, 1.6781°W)
Time: 15:22:02
(UTC+00:00)

Vanguard 3 - Visible Passes

Search period start: 11 April 2021 00:00
Search period end: 21 April 2021 00:00
Orbit: 508 x 3262 km, 33.3° (Epoch: 10 April)

Date Brightness Start Highest point End Pass type
(mag) Time Alt. Az. Time Alt. Az. Time Alt. Az.
11 Apr 8.5 04:02:36 11° S 04:04:14 14° SSE 04:06:33 10° ESE visible
12 Apr 8.3 04:58:04 10° SW 05:01:17 23° SSE 05:05:24 10° ESE visible
13 Apr 8.3 03:47:15 14° S 03:47:54 15° SSE 03:50:15 10° SE visible
14 Apr 8.1 04:41:59 10° SW 04:45:00 22° S 04:48:42 10° ESE visible
15 Apr 8.2 03:31:51 16° SSE 03:31:51 16° SSE 03:34:02 10° SE visible
16 Apr 7.9 04:26:26 13° SW 04:28:47 21° S 04:32:06 10° ESE visible
17 Apr 8.3 03:16:27 15° SSE 03:16:27 15° SSE 03:17:52 10° SE visible
18 Apr 7.8 04:11:02 16° SSW 04:12:33 20° S 04:15:34 10° SE visible
19 Apr 8.6 03:01:05 13° SE 03:01:05 13° SE 03:01:47 10° SE visible
20 Apr 7.7 03:55:41 19° SSW 03:56:21 20° S 03:59:10 10° SE visible
